Time,TemperatureF,DewpointF,PressureIn,WindDirection,WindDirectionDegrees,WindSpeedMPH,WindSpeedGustMPH,Humidity,HourlyPrecipIn,Conditions,Clouds,dailyrainin,SoftwareType,DateUTC
2013-05-14 00:08:00,38.6,33.0,30.32,SSW,202,1.0,3.0,79,0.00,,,0.00,weatherlink.com 1.10,2013-05-14 04:08:00,
2013-05-14 00:23:00,39.4,33.0,30.32,South,181,0.0,3.0,77,0.00,,,0.00,weatherlink.com 1.10,2013-05-14 04:23:00,
2013-05-14 00:38:00,39.1,32.0,30.32,South,181,0.0,3.0,77,0.00,,,0.00,weatherlink.com 1.10,2013-05-14 04:38:00,
2013-05-14 00:53:00,38.5,32.0,30.31,South,181,0.0,2.0,78,0.00,,,0.00,weatherlink.com 1.10,2013-05-14 04:53:00,
2013-05-14 01:08:00,38.0,32.0,30.32,South,181,0.0,1.0,78,0.00,,,0.00,weatherlink.com 1.10,2013-05-14 05:08:00,
2013-05-14 01:23:00,37.8,32.0,30.31,South,181,0.0,2.0,78,0.00,,,0.00,weatherlink.com 1.10,2013-05-14 05:23:00,
2013-05-14 01:38:00,37.6,32.0,30.31,SSE,167,0.0,4.0,79,0.00,,,0.00,weatherlink.com 1.10,2013-05-14 05:38:00,
2013-05-14 01:53:00,37.7,32.0,30.31,SSW,200,2.0,4.0,79,0.00,,,0.00,weatherlink.com 1.10,2013-05-14 05:53:00,
2013-05-14 02:08:00,37.9,32.0,30.31,SSW,194,0.0,3.0,78,0.00,,,0.00,weatherlink.com 1.10,2013-05-14 06:08:00,
2013-05-14 02:23:00,37.5,32.0,30.31,SSW,194,0.0,2.0,79,0.00,,,0.00,weatherlink.com 1.10,2013-05-14 06:23:00,
2013-05-14 02:38:00,37.4,32.0,30.31,South,180,0.0,3.0,80,0.00,,,0.00,weatherlink.com 1.10,2013-05-14 06:38:00,
2013-05-14 02:53:00,37.3,32.0,30.31,South,181,0.0,3.0,81,0.00,,,0.00,weatherlink.com 1.10,2013-05-14 06:53:00,
2013-05-14 03:08:00,37.7,32.0,30.32,SW,221,6.0,6.0,81,0.00,,,0.00,weatherlink.com 1.10,2013-05-14 07:08:00,
2013-05-14 03:23:00,38.2,33.0,30.32,NNW,347,2.0,6.0,80,0.00,,,0.00,weatherlink.com 1.10,2013-05-14 07:23:00,
2013-05-14 03:38:00,38.3,33.0,30.32,SSW,202,1.0,6.0,80,0.00,,,0.00,weatherlink.com 1.10,2013-05-14 07:38:00,
2013-05-14 03:53:00,38.3,32.0,30.31,SSW,202,1.0,6.0,79,0.00,,,0.00,weatherlink.com 1.10,2013-05-14 07:53:00,
2013-05-14 04:08:00,38.3,33.0,30.32,South,173,2.0,6.0,80,0.00,,,0.00,weatherlink.com 1.10,2013-05-14 08:08:00,
2013-05-14 04:23:00,37.9,32.0,30.31,SSW,196,1.0,6.0,80,0.00,,,0.00,weatherlink.com 1.10,2013-05-14 08:23:00,
2013-05-14 04:38:00,37.8,32.0,30.32,WSW,243,1.0,7.0,81,0.00,,,0.00,weatherlink.com 1.10,2013-05-14 08:38:00,
2013-05-14 04:53:00,37.6,32.0,30.32,SSW,196,3.0,5.0,81,0.00,,,0.00,weatherlink.com 1.10,2013-05-14 08:53:00,
2013-05-14 05:08:00,37.4,32.0,30.31,South,171,1.0,6.0,80,0.00,,,0.00,weatherlink.com 1.10,2013-05-14 09:08:00,
2013-05-14 05:23:00,37.2,32.0,30.31,SSW,201,1.0,5.0,80,0.00,,,0.00,weatherlink.com 1.10,2013-05-14 09:23:00,
2013-05-14 05:38:00,37.4,31.0,30.31,SSW,202,5.0,8.0,79,0.00,,,0.00,weatherlink.com 1.10,2013-05-14 09:38:00,
2013-05-14 05:53:00,37.5,31.0,30.31,NW,306,2.0,7.0,78,0.00,,,0.00,weatherlink.com 1.10,2013-05-14 09:53:00,
2013-05-14 06:08:00,37.6,31.0,30.32,SW,228,1.0,8.0,78,0.00,,,0.00,weatherlink.com 1.10,2013-05-14 10:08:00,
2013-05-14 06:23:00,37.8,31.0,30.32,SSW,192,3.0,7.0,77,0.00,,,0.00,weatherlink.com 1.10,2013-05-14 10:23:00,
2013-05-14 06:38:00,38.2,31.0,30.32,SSE,155,1.0,7.0,76,0.00,,,0.00,weatherlink.com 1.10,2013-05-14 10:38:00,
2013-05-14 06:53:00,38.6,32.0,30.33,SSW,200,4.0,8.0,76,0.00,,,0.00,weatherlink.com 1.10,2013-05-14 10:53:00,
2013-05-14 07:08:00,39.3,32.0,30.33,SSE,147,0.0,7.0,74,0.00,,,0.00,weatherlink.com 1.10,2013-05-14 11:08:00,
2013-05-14 07:23:00,40.0,32.0,30.33,SE,142,0.0,6.0,73,0.00,,,0.00,weatherlink.com 1.10,2013-05-14 11:23:00,
2013-05-14 07:38:00,41.0,32.0,30.33,West,263,3.0,6.0,71,0.00,,,0.00,weatherlink.com 1.10,2013-05-14 11:38:00,
2013-05-14 07:53:00,43.2,33.0,30.34,SE,128,1.0,4.0,68,0.00,,,0.00,weatherlink.com 1.10,2013-05-14 11:53:00,
2013-05-14 08:08:00,45.2,33.0,30.34,SE,131,1.0,5.0,63,0.00,,,0.00,weatherlink.com 1.10,2013-05-14 12:08:00,
2013-05-14 08:23:00,46.3,33.0,30.34,South,179,1.0,2.0,61,0.00,,,0.00,weatherlink.com 1.10,2013-05-14 12:23:00,
2013-05-14 08:38:00,47.1,34.0,30.34,South,173,1.0,5.0,60,0.00,,,0.00,weatherlink.com 1.10,2013-05-14 12:38:00,
2013-05-14 08:53:00,49.4,34.0,30.34,West,274,4.0,4.0,56,0.00,,,0.00,weatherlink.com 1.10,2013-05-14 12:53:00,
2013-05-14 09:08:00,50.6,35.0,30.33,WSW,253,1.0,5.0,56,0.00,,,0.00,weatherlink.com 1.10,2013-05-14 13:08:00,
2013-05-14 09:23:00,51.5,33.0,30.33,SE,146,1.0,4.0,50,0.00,,,0.00,weatherlink.com 1.10,2013-05-14 13:23:00,
2013-05-14 09:38:00,51.5,34.0,30.33,West,264,3.0,5.0,52,0.00,,,0.00,weatherlink.com 1.10,2013-05-14 13:38:00,
2013-05-14 09:53:00,51.7,33.0,30.33,SE,145,2.0,5.0,50,0.00,,,0.00,weatherlink.com 1.10,2013-05-14 13:53:00,
2013-05-14 10:08:00,52.5,33.0,30.32,North,349,3.0,6.0,47,0.00,,,0.00,weatherlink.com 1.10,2013-05-14 14:08:00,
2013-05-14 10:23:00,51.5,32.0,30.32,WNW,284,5.0,10.0,48,0.00,,,0.00,weatherlink.com 1.10,2013-05-14 14:23:00,
2013-05-14 10:38:00,51.6,31.0,30.32,SE,125,2.0,6.0,46,0.00,,,0.00,weatherlink.com 1.10,2013-05-14 14:38:00,
2013-05-14 10:53:00,51.4,31.0,30.32,WNW,298,1.0,7.0,45,0.00,,,0.00,weatherlink.com 1.10,2013-05-14 14:53:00,
2013-05-14 11:08:00,53.7,32.0,30.31,South,186,1.0,8.0,44,0.00,,,0.00,weatherlink.com 1.10,2013-05-14 15:08:00,
2013-05-14 11:23:00,55.5,30.0,30.31,SW,226,2.0,8.0,38,0.00,,,0.00,weatherlink.com 1.10,2013-05-14 15:23:00,
2013-05-14 11:38:00,58.5,29.0,30.31,WSW,244,3.0,4.0,33,0.00,,,0.00,weatherlink.com 1.10,2013-05-14 15:38:00,
2013-05-14 11:54:00,58.0,30.0,30.30,NNE,32,0.0,5.0,34,0.00,,,0.00,weatherlink.com 1.10,2013-05-14 15:54:00,
2013-05-14 12:09:00,57.2,27.0,30.30,NE,55,0.0,5.0,32,0.00,,,0.00,weatherlink.com 1.10,2013-05-14 16:09:00,
2013-05-14 12:24:00,58.2,29.0,30.30,SSE,162,1.0,9.0,33,0.00,,,0.00,weatherlink.com 1.10,2013-05-14 16:24:00,
2013-05-14 12:39:00,58.1,29.0,30.30,SE,134,3.0,5.0,33,0.00,,,0.00,weatherlink.com 1.10,2013-05-14 16:39:00,
2013-05-14 12:54:00,57.7,26.0,30.30,NNW,327,3.0,6.0,30,0.00,,,0.00,weatherlink.com 1.10,2013-05-14 16:54:00,
2013-05-14 13:09:00,58.7,26.0,30.30,East,100,3.0,7.0,29,0.00,,,0.00,weatherlink.com 1.10,2013-05-14 17:09:00,
2013-05-14 13:24:00,59.6,27.0,30.29,WNW,295,3.0,6.0,29,0.00,,,0.00,weatherlink.com 1.10,2013-05-14 17:24:00,
2013-05-14 13:39:00,61.0,28.0,30.29,SSE,156,1.0,5.0,29,0.00,,,0.00,weatherlink.com 1.10,2013-05-14 17:39:00,
2013-05-14 13:54:00,61.6,24.0,30.28,SSW,192,0.0,5.0,24,0.00,,,0.00,weatherlink.com 1.10,2013-05-14 17:54:00,
2013-05-14 14:09:00,58.6,24.0,30.28,SE,142,1.0,8.0,26,0.00,,,0.00,weatherlink.com 1.10,2013-05-14 18:09:00,
2013-05-14 14:24:00,59.6,24.0,30.27,SSW,196,5.0,5.0,26,0.00,,,0.00,weatherlink.com 1.10,2013-05-14 18:24:00,
2013-05-14 14:39:00,60.4,23.0,30.26,WSW,252,2.0,6.0,24,0.00,,,0.00,weatherlink.com 1.10,2013-05-14 18:39:00,
2013-05-14 14:54:00,59.8,23.0,30.26,NE,44,1.0,7.0,24,0.00,,,0.00,weatherlink.com 1.10,2013-05-14 18:54:00,
2013-05-14 15:09:00,60.7,22.0,30.26,SSE,161,3.0,9.0,23,0.00,,,0.00,weatherlink.com 1.10,2013-05-14 19:09:00,
2013-05-14 15:24:00,59.4,22.0,30.25,SW,233,3.0,9.0,24,0.00,,,0.00,weatherlink.com 1.10,2013-05-14 19:24:00,
2013-05-14 15:39:00,58.8,24.0,30.25,ENE,73,0.0,6.0,26,0.00,,,0.00,weatherlink.com 1.10,2013-05-14 19:39:00,
2013-05-14 15:54:00,58.8,25.0,30.25,SSW,192,3.0,7.0,27,0.00,,,0.00,weatherlink.com 1.10,2013-05-14 19:54:00,
2013-05-14 16:09:00,58.8,26.0,30.24,SE,146,3.0,5.0,28,0.00,,,0.00,weatherlink.com 1.10,2013-05-14 20:09:00,
2013-05-14 16:24:00,60.1,25.0,30.23,South,169,0.0,3.0,26,0.00,,,0.00,weatherlink.com 1.10,2013-05-14 20:24:00,
2013-05-14 16:39:00,60.6,24.0,30.23,ENE,63,0.0,6.0,25,0.00,,,0.00,weatherlink.com 1.10,2013-05-14 20:39:00,
2013-05-14 16:54:00,61.4,25.0,30.23,NNW,338,3.0,6.0,25,0.00,,,0.00,weatherlink.com 1.10,2013-05-14 20:54:00,
2013-05-14 17:09:00,62.4,24.0,30.23,West,280,0.0,5.0,23,0.00,,,0.00,weatherlink.com 1.10,2013-05-14 21:09:00,
2013-05-14 17:24:00,61.6,25.0,30.23,SSW,205,6.0,7.0,25,0.00,,,0.00,weatherlink.com 1.10,2013-05-14 21:24:00,
2013-05-14 17:39:00,60.3,24.0,30.23,East,98,0.0,5.0,25,0.00,,,0.00,weatherlink.com 1.10,2013-05-14 21:39:00,
2013-05-14 17:54:00,60.4,23.0,30.23,ESE,103,1.0,5.0,24,0.00,,,0.00,weatherlink.com 1.10,2013-05-14 21:54:00,
2013-05-14 18:09:00,59.9,23.0,30.22,South,181,2.0,6.0,24,0.00,,,0.00,weatherlink.com 1.10,2013-05-14 22:09:00,
2013-05-14 18:24:00,59.9,24.0,30.23,South,190,2.0,3.0,25,0.00,,,0.00,weatherlink.com 1.10,2013-05-14 22:24:00,
2013-05-14 18:39:00,58.9,22.0,30.23,SSW,201,1.0,5.0,24,0.00,,,0.00,weatherlink.com 1.10,2013-05-14 22:39:00,
2013-05-14 18:54:00,57.1,23.0,30.23,SE,131,0.0,3.0,27,0.00,,,0.00,weatherlink.com 1.10,2013-05-14 22:54:00,
2013-05-14 19:09:00,56.1,23.0,30.23,NE,49,1.0,3.0,28,0.00,,,0.00,weatherlink.com 1.10,2013-05-14 23:09:00,
2013-05-14 19:24:00,55.5,24.0,30.23,South,190,0.0,4.0,29,0.00,,,0.00,weatherlink.com 1.10,2013-05-14 23:24:00,
2013-05-14 19:39:00,54.7,25.0,30.23,SSW,194,0.0,4.0,32,0.00,,,0.00,weatherlink.com 1.10,2013-05-14 23:39:00,
2013-05-14 19:54:00,53.3,24.0,30.23,SSE,153,1.0,3.0,32,0.00,,,0.00,weatherlink.com 1.10,2013-05-14 23:54:00,
2013-05-14 20:09:00,52.2,28.0,30.23,ESE,107,1.0,2.0,40,0.00,,,0.00,weatherlink.com 1.10,2013-05-15 00:09:00,
2013-05-14 20:24:00,50.8,29.0,30.23,SE,137,0.0,3.0,44,0.00,,,0.00,weatherlink.com 1.10,2013-05-15 00:24:00,
2013-05-14 20:39:00,49.2,29.0,30.24,SE,137,1.0,3.0,46,0.00,,,0.00,weatherlink.com 1.10,2013-05-15 00:39:00,
2013-05-14 20:54:00,48.0,28.0,30.24,SE,137,0.0,2.0,46,0.00,,,0.00,weatherlink.com 1.10,2013-05-15 00:54:00,
2013-05-14 21:09:00,47.0,28.0,30.25,SE,137,0.0,1.0,48,0.00,,,0.00,weatherlink.com 1.10,2013-05-15 01:09:00,
2013-05-14 21:24:00,46.5,28.0,30.25,SE,137,0.0,1.0,48,0.00,,,0.00,weatherlink.com 1.10,2013-05-15 01:24:00,
2013-05-14 21:39:00,45.8,27.0,30.26,SE,137,0.0,1.0,49,0.00,,,0.00,weatherlink.com 1.10,2013-05-15 01:39:00,
2013-05-14 21:54:00,44.6,27.0,30.26,SE,137,0.0,0.0,50,0.00,,,0.00,weatherlink.com 1.10,2013-05-15 01:54:00,
2013-05-14 22:10:00,44.3,28.0,30.26,SE,137,0.0,0.0,54,0.00,,,0.00,weatherlink.com 1.10,2013-05-15 02:10:00,
2013-05-14 22:25:00,43.8,27.0,30.27,SE,137,0.0,1.0,52,0.00,,,0.00,weatherlink.com 1.10,2013-05-15 02:25:00,
2013-05-14 22:40:00,43.3,27.0,30.27,SE,137,0.0,0.0,53,0.00,,,0.00,weatherlink.com 1.10,2013-05-15 02:40:00,
2013-05-14 22:55:00,43.1,27.0,30.27,SE,137,0.0,0.0,54,0.00,,,0.00,weatherlink.com 1.10,2013-05-15 02:55:00,
2013-05-14 23:10:00,42.9,27.0,30.27,SE,137,0.0,1.0,54,0.00,,,0.00,weatherlink.com 1.10,2013-05-15 03:10:00,
2013-05-14 23:25:00,42.8,28.0,30.27,SE,137,0.0,0.0,57,0.00,,,0.00,weatherlink.com 1.10,2013-05-15 03:25:00,
2013-05-14 23:40:00,42.2,29.0,30.28,SE,137,0.0,0.0,60,0.00,,,0.00,weatherlink.com 1.10,2013-05-15 03:40:00,
2013-05-14 23:55:00,41.2,29.0,30.28,SE,137,0.0,0.0,61,0.00,,,0.00,weatherlink.com 1.10,2013-05-15 03:55:00,